W0JFB Weather Reports


time (UTC)temp
C
wind
direction
speed
KPH
gust
KPH
rain 1hr
cm
rain 24hr
cm
rain mn
cm
humidity
%
barometer
mb
20260506213042 20 324 1.6 9.7 0.00 0.00 0.00 63 1017.7
20260506211559 20 263 1.6 8.0 0.00 0.00 0.00 62 1018.0
20260506210048 21 262 1.6 6.4 0.00 0.00 0.00 62 1017.9
20260506204546 21 295 0.0 6.4 0.00 0.00 0.00 61 1017.9
20260506203045 20 283 0.0 4.8 0.00 0.00 0.00 62 1018.0
20260506201543 20 255 1.6 6.4 0.00 0.00 0.00 63 1018.0
20260506200048 20 0 1.6 9.7 0.00 0.00 0.00 61 1018.1
20260506194553 20 313 0.0 4.8 0.00 0.00 0.00 61 1018.2
20260506193046 20 232 0.0 6.4 0.00 0.00 0.00 61 1018.3
20260506191557 20 262 1.6 6.4 0.00 0.00 0.00 62 1018.3
20260506190046 20 285 1.6 9.7 0.00 0.00 0.00 63 1018.4
20260506184548 19 260 1.6 6.4 0.00 0.00 0.00 65 1018.5
20260506183050 18 258 0.0 4.8 0.00 0.00 0.00 67 1018.6
20260506181549 18 252 0.0 3.2 0.00 0.00 0.00 65 1018.7
20260506180052 18 0 1.6 4.8 0.00 0.00 0.00 70 1018.6
20260506174548 17 0 0.0 4.8 0.00 0.00 0.00 70 1018.7
20260506173056 17 0 0.0 4.8 0.00 0.00 0.00 73 1018.7
20260506171557 17 0 1.6 6.4 0.00 0.00 0.00 74 1018.7
20260506170058 17 0 0.0 4.8 0.00 0.00 0.00 74 1018.7
20260506164606 16 263 1.6 4.8 0.00 0.00 0.00 73 1018.5
20260506163057 16 259 0.0 3.2 0.00 0.00 0.00 73 1018.6
20260506161546 16 0 1.6 4.8 0.00 0.00 0.00 75 1018.5
20260506160106 15 218 0.0 3.2 0.00 0.00 0.00 75 1018.5
20260506154553 15 253 0.0 3.2 0.00 0.00 0.00 80 1018.5
20260506153049 15 0 0.0 1.6 0.00 0.00 0.00 81 1018.6
20260506151553 14 0 0.0 1.6 0.00 0.00 0.00 84 1018.6
20260506150047 13 0 0.0 1.6 0.00 0.00 0.00 85 1018.5
20260506144552 13 0 0.0 1.6 0.00 0.00 0.00 88 1018.5
20260506143052 12 0 0.0 1.6 0.00 0.00 0.00 88 1018.4
20260506141606 11 0 0.0 1.6 0.00 0.00 0.00 88 1018.3
20260506140048 10 0 0.0 1.6 0.00 0.00 0.00 90 1018.2
20260506134546 9 0 0.0 1.6 0.00 0.00 0.00 91 1018.0
20260506133103 9 0 0.0 1.6 0.00 0.00 0.00 90 1017.9
20260506131544 9 0 0.0 1.6 0.00 0.00 0.00 90 1017.7
20260506130048 9 0 0.0 1.6 0.00 0.00 0.00 90 1017.6
20260506124548 9 0 0.0 1.6 0.00 0.00 0.00 90 1017.6
20260506123049 10 0 0.0 1.6 0.00 0.00 0.00 89 1017.6
20260506121555 10 0 0.0 1.6 0.00 0.00 0.00 89 1017.5
20260506120116 10 0 0.0 1.6 0.00 0.00 0.00 89 1017.6
20260506114550 10 0 0.0 1.6 0.00 0.00 0.00 89 1017.4
20260506113048 10 0 0.0 1.6 0.00 0.00 0.00 89 1017.4
20260506111549 10 0 0.0 1.6 0.00 0.00 0.00 88 1017.3
20260506110048 10 0 0.0 1.6 0.00 0.00 0.00 88 1017.3
20260506104548 10 0 0.0 1.6 0.00 0.00 0.00 88 1017.2
20260506103053 10 0 0.0 1.6 0.00 0.00 0.00 88 1017.2
20260506101549 10 0 0.0 1.6 0.00 0.00 0.00 88 1017.1
20260506100046 11 0 0.0 1.6 0.00 0.00 0.00 87 1017.2
20260506094551 11 0 0.0 1.6 0.00 0.00 0.00 87 1017.2
20260506093052 11 247 0.0 1.6 0.00 0.00 0.00 86 1017.1
20260506091551 11 0 0.0 1.6 0.00 0.00 0.00 86 1017.1
20260506090048 11 0 0.0 1.6 0.00 0.00 0.00 86 1017.1
20260506084548 11 0 0.0 1.6 0.00 0.00 0.00 85 1017.5
20260506083049 11 0 0.0 1.6 0.00 0.00 0.00 85 1017.5
20260506081552 12 0 0.0 1.6 0.00 0.00 0.00 84 1017.5
20260506073048 12 0 0.0 3.2 0.00 0.00 0.00 82 1017.3
20260506071551 13 0 0.0 1.6 0.00 0.00 0.00 82 1017.3
20260506070105 13 0 0.0 3.2 0.00 0.00 0.00 82 1017.1
20260506061543 14 0 0.0 3.2 0.00 0.00 0.00 81 1016.6
20260506044558 16 0 0.0 6.4 0.00 0.00 0.00 65 1015.5
20260506043050 16 0 0.0 4.8 0.00 0.00 0.00 65 1015.5
20260506041552 17 0 0.0 4.8 0.00 0.00 0.00 64 1015.3
20260506040053 17 82 0.0 6.4 0.00 0.00 0.00 64 1014.9
20260506034550 17 227 0.0 6.4 0.00 0.00 0.00 64 1014.8
20260506033049 17 0 0.0 4.8 0.00 0.00 0.00 63 1014.6
20260506031558 17 233 1.6 4.8 0.00 0.00 0.00 62 1014.3
20260506030108 17 236 0.0 9.7 0.00 0.00 0.00 61 1014.2
20260506024550 18 218 1.6 8.0 0.00 0.00 0.00 60 1014.0
20260506023046 17 0 1.6 6.4 0.00 0.00 0.00 61 1013.7
20260506021543 17 0 0.0 3.2 0.00 0.00 0.00 66 1013.7
20260506020048 18 254 0.0 3.2 0.00 0.00 0.00 66 1013.6
20260506014558 18 0 0.0 4.8 0.00 0.00 0.00 64 1013.5
20260506013050 19 0 0.0 1.6 0.00 0.00 0.00 61 1013.4
20260506011555 20 220 0.0 3.2 0.00 0.00 0.00 60 1013.4
20260506010046 19 229 0.0 3.2 0.00 0.00 0.00 61 1013.3
20260506004622 19 264 0.0 6.4 0.00 0.00 0.00 62 1013.2
20260506003048 19 0 0.0 6.4 0.00 0.00 0.00 61 1013.2
20260506001549 20 0 0.0 4.8 0.00 0.00 0.00 56 1013.2
20260506000047 20 0 1.6 4.8 0.00 0.00 0.00 53 1012.9
20260505234609 21 0 1.6 8.0 0.00 0.00 0.00 52 1012.9
20260505233045 20 232 1.6 8.0 0.00 0.00 0.00 55 1012.9
20260505231551 20 222 1.6 8.0 0.00 0.00 0.00 54 1012.8
20260505230052 20 0 3.2 11.3 0.00 0.00 0.00 54 1012.8
20260505224546 19 233 1.6 6.4 0.00 0.00 0.00 60 1013.0
20260505223100 18 237 3.2 11.3 0.00 0.00 0.00 61 1013.3
20260505221605 18 308 3.2 12.9 0.00 0.00 0.00 61 1013.4
20260505220100 18 308 1.6 12.9 0.00 0.00 0.00 60 1013.5
20260505214559 19 333 3.2 12.9 0.00 0.00 0.00 58 1013.7